Hourly Data Report for October 10, 2016

All times are specified in Local Standard Time (LST). Add 1 hour to adjust for Daylight Saving Time where and when it is observed.

QIKIQTARJUAQ A
NUNAVUT

67°32'48.000" N
64°01'54.000" W
5.50 m
2400577
YVM

Download Data

Hourly Data (October 2016)
Hourly Data Report for October 10, 2016
Temp Definition
°C
Dew Point Temp Definition
°C
Rel Hum Definition
%
Wind Dir Definition
10's deg

Wind Spd Definition
km/h
Visibility Definition
km
Stn Press Definition
kPa
Hmdx Definition


Wind Chill Definition


Weather Definition


TIME
00:00 Legend Double Dagger -4.6 -7.3 82 11 5 16.1 100.82   -7 LegendNANA
01:00 Legend Double Dagger -5.7 -8.7 79 13 8 16.1 100.83   -9 LegendNANA
02:00 Legend Double Dagger -6.1 -8.9 81 14 5 16.1 100.86   -9 LegendNANA
03:00 Legend Double Dagger -7.0 -9.9 80 13 5 16.1 100.88   -10 LegendNANA
04:00 Legend Double Dagger -7.0 -9.1 85   0 16.1 100.91     LegendNANA
05:00 Legend Double Dagger -8.1 -9.4 91 13 5 16.1 100.93   -11 LegendNANA
06:00 Legend Double Dagger -5.9 -8.0 85 16 5 16.1 100.96   -8 LegendNANA
07:00 Legend Double Dagger -3.9 -6.3 84 17 5 16.1 100.98   -6 LegendNANA
08:00 Legend Double Dagger -3.2 -5.7 83 20 11 16.1 101.00   -7 LegendNANA
09:00 Legend Double Dagger -2.7 -5.4 82 20 8 16.1 101.04   -6 LegendNANA
10:00 Legend Double Dagger -3.9 -6.2 84 15 9 16.1 101.06   -8 LegendNANA
11:00 Legend Double Dagger -4.2 -6.4 85 16 5 16.1 101.09   -6 LegendNANA
12:00 Legend Double Dagger -4.9 -6.5 89 18 11 16.1 101.12   -9 LegendNANA
13:00 Legend Double Dagger -4.4 -6.6 85 20 11 16.1 101.15   -9 LegendNANA
14:00 Legend Double Dagger -4.0 -7.3 78 19 17 16.1 101.17   -10 LegendNANA
15:00 Legend Double Dagger -3.8 -8.0 73 20 17 16.1 101.20   -10 LegendNANA
16:00 Legend Double Dagger -4.0 -8.3 72 19 15 16.1 101.23   -9 LegendNANA
17:00 Legend Double Dagger -3.2 -7.7 71 20 22 16.1 101.22   -10 LegendNANA
18:00 Legend Double Dagger -3.9 -8.4 71 20 18 16.1 101.24   -10 LegendNANA
19:00 Legend Double Dagger -3.8 -8.7 69 20 18 16.1 101.24   -10 LegendNANA
20:00 Legend Double Dagger -3.9 -10.3 62 20 18 16.1 101.26   -10 LegendNANA
21:00 Legend Double Dagger -4.0 -9.2 67 18 21 16.1 101.27   -10 LegendNANA
22:00 Legend Double Dagger -3.4 -10.3 59   0 16.1 101.29     LegendNANA
23:00 Legend Double Dagger -4.9 -10.9 63 12 5 16.1 101.32   -7 LegendNANA

Notes on Data Quality.

Legend

  • E = Estimated
  • M = Missing
  • NA = Not Available
  • ‡ = Partner data that is not subject to review by the National Climate Archives
Date modified: